DW0156 Weather Reports


time (UTC)temp
C
wind
direction
speed
KPH
gust
KPH
rain 1hr
cm
rain 24hr
cm
rain mn
cm
humidity
%
barometer
mb
20260504130402 13 263 0.0 0.0 0.00 0.46 0.38 88 1020.1
20260504110304 14 263 0.0 0.0 0.00 0.46 0.36 84 1019.0
20260504100517 15 263 0.0 1.6 0.00 0.46 0.33 79 1018.3
20260504082002 16 263 9.7 22.5 0.00 0.56 0.33 70 1016.9
20260504080842 16 263 8.0 22.5 0.00 0.64 0.33 69 1016.6
20260504080332 16 263 8.0 22.5 0.00 0.64 0.33 69 1016.6
20260504050721 18 263 11.3 22.5 0.00 0.79 0.33 63 1014.8
20260504050222 18 263 11.3 29.0 0.00 0.79 0.33 62 1014.8
20260504045709 18 263 9.7 29.0 0.00 0.79 0.33 62 1014.8
20260504045215 18 263 12.9 29.0 0.00 0.79 0.33 64 1014.8
20260504044723 18 263 12.9 29.0 0.00 0.79 0.33 63 1014.8
20260504044219 18 263 11.3 24.1 0.00 0.79 0.33 64 1014.7
20260504043724 18 263 12.9 27.4 0.00 0.79 0.33 67 1014.7
20260504043226 18 263 12.9 27.4 0.00 0.79 0.33 66 1014.7
20260504042722 18 263 12.9 27.4 0.00 0.79 0.33 65 1014.6
20260504042213 18 263 12.9 27.4 0.00 0.79 0.33 64 1014.6
20260504041703 18 263 11.3 25.7 0.00 0.79 0.33 66 1014.6
20260504041200 18 263 12.9 25.7 0.00 0.79 0.33 66 1014.6
20260504040646 18 263 12.9 25.7 0.00 0.79 0.33 66 1014.6
20260504040141 18 263 12.9 25.7 0.00 0.79 0.33 65 1014.6
20260504035633 18 263 11.3 25.7 0.00 0.79 0.33 66 1014.7
20260504035124 18 263 11.3 25.7 0.00 0.79 0.33 66 1014.7
20260504034629 18 263 9.7 27.4 0.00 0.79 0.33 66 1014.7
20260504034138 18 263 9.7 27.4 0.00 0.79 0.33 65 1014.7
20260504033638 18 263 11.3 27.4 0.00 0.79 0.33 66 1014.7
20260504033131 18 263 11.3 27.4 0.00 0.79 0.33 67 1014.7
20260504032626 18 263 9.7 25.7 0.00 0.79 0.33 69 1014.8
20260504032133 17 263 11.3 25.7 0.00 0.79 0.33 69 1014.8
20260504031633 17 263 11.3 20.9 0.00 0.79 0.33 68 1014.8
20260504031124 17 263 9.7 24.1 0.00 0.79 0.33 67 1014.8
20260504030616 17 263 9.7 24.1 0.00 0.79 0.33 69 1014.8
20260504030124 17 263 12.9 29.0 0.00 0.79 0.33 69 1014.8
20260504025609 17 263 14.5 29.0 0.00 0.79 0.33 68 1014.8
20260504025109 17 263 12.9 29.0 0.00 0.79 0.33 68 1014.8
20260504024617 18 263 9.7 29.0 0.00 0.81 0.33 69 1014.8
20260504024104 17 263 11.3 25.7 0.00 0.81 0.33 68 1014.9
20260504023557 17 263 11.3 25.7 0.00 0.81 0.33 70 1014.9
20260504023052 17 263 9.7 33.8 0.00 0.81 0.33 69 1014.9
20260504022559 17 263 9.7 33.8 0.00 0.81 0.33 69 1014.9
20260504022107 17 263 11.3 33.8 0.00 0.81 0.33 69 1014.9
20260504021551 17 263 16.1 33.8 0.00 0.81 0.33 68 1014.9
20260504021035 17 263 14.5 30.6 0.00 0.81 0.33 69 1014.8
20260504020534 17 263 12.9 29.0 0.00 0.81 0.33 69 1014.8
20260504020043 17 263 12.9 29.0 0.00 0.79 0.30 69 1014.8
20260504015553 17 263 12.9 29.0 0.00 0.79 0.30 69 1014.8
20260504015042 17 263 12.9 29.0 0.00 0.79 0.30 69 1014.8
20260504014546 17 263 12.9 27.4 0.00 0.79 0.30 69 1014.8
20260504014035 17 263 12.9 27.4 0.00 0.79 0.30 69 1014.7
20260504013543 17 263 14.5 27.4 0.00 0.79 0.30 69 1014.7
20260504012414 17 263 11.3 29.0 0.00 0.79 0.30 70 1014.6
20260504011919 17 263 12.9 29.0 0.00 0.79 0.30 71 1014.6
20260504011420 17 263 12.9 29.0 0.00 0.79 0.30 70 1014.6
20260504010912 17 263 9.7 27.4 0.00 0.79 0.30 71 1014.5
20260504005753 17 263 11.3 29.0 0.00 0.79 0.30 71 1014.3
20260504005238 17 263 12.9 29.0 0.00 0.79 0.30 71 1014.3
20260504004734 17 263 12.9 27.4 0.00 0.79 0.30 72 1014.3
20260504004236 17 263 11.3 22.5 0.00 0.79 0.30 73 1014.1
20260504003048 16 263 11.3 20.9 0.00 0.79 0.30 75 1014.1
20260504002551 16 263 12.9 25.7 0.00 0.79 0.30 76 1013.9
20260504002039 16 263 11.3 25.7 0.00 0.79 0.30 78 1013.9
20260504001523 16 263 9.7 25.7 0.00 0.79 0.30 80 1013.9
20260504001021 16 263 8.0 25.7 0.00 0.79 0.30 82 1013.8
20260504000508 15 263 8.0 17.7 0.00 0.79 0.30 84 1013.8
20260504000016 15 263 8.0 24.1 0.00 0.79 0.30 84 1013.8
20260503234856 15 263 6.4 24.1 0.00 0.81 0.30 85 1013.8
20260503233728 15 263 4.8 12.9 0.00 0.81 0.30 85 1013.6
20260503233229 15 263 4.8 22.5 0.00 0.81 0.30 85 1013.6
20260503232723 15 263 8.0 22.5 0.00 0.81 0.30 84 1013.3
20260503232227 15 263 9.7 22.5 0.00 0.81 0.30 83 1013.3
20260503231713 15 263 6.4 22.5 0.00 0.81 0.30 83 1013.3
20260503231212 16 263 4.8 24.1 0.00 0.79 0.30 83 1013.1
20260503230711 16 263 6.4 24.1 0.00 0.79 0.28 82 1013.1
20260503230211 16 263 8.0 24.1 0.00 0.79 0.28 82 1013.1
20260503225657 16 263 9.7 24.1 0.00 0.79 0.28 82 1012.8
20260503225147 15 263 8.0 22.5 0.00 0.79 0.28 82 1012.8
20260503224635 15 263 8.0 22.5 0.00 0.79 0.28 83 1012.8
20260503224127 15 263 6.4 20.9 0.00 0.79 0.28 82 1012.7
20260503223628 15 263 6.4 20.9 0.00 0.79 0.28 82 1012.7
20260503223111 15 263 8.0 20.9 0.00 0.79 0.28 82 1012.7
20260503222607 15 263 6.4 19.3 0.00 0.79 0.28 82 1012.4
20260503222058 15 263 6.4 19.3 0.00 0.79 0.28 82 1012.4
20260503221539 15 263 6.4 19.3 0.00 0.79 0.28 82 1012.4
20260503213908 15 263 8.0 22.5 0.00 0.79 0.28 83 1011.8
20260503213415 15 263 8.0 20.9 0.00 0.79 0.28 83 1011.8
20260503212906 15 263 8.0 20.9 0.00 0.79 0.28 83 1011.7
20260503212347 15 263 8.0 27.4 0.00 0.79 0.28 83 1011.7
20260503211838 15 263 8.0 27.4 0.00 0.79 0.28 83 1011.7
20260503211336 15 263 9.7 27.4 0.00 0.79 0.28 82 1011.7
20260503210817 15 263 11.3 27.4 0.00 0.79 0.28 82 1011.7
20260503210315 15 263 9.7 20.9 0.00 0.84 0.28 82 1011.7
20260503205759 15 263 8.0 19.3 0.00 0.84 0.28 82 1011.3
20260503205243 15 263 8.0 24.1 0.00 0.84 0.28 82 1011.3
20260503204727 15 263 9.7 24.1 0.00 0.84 0.28 81 1011.3
20260503204227 15 263 9.7 24.1 0.00 0.84 0.28 81 1011.2
20260503203722 15 263 9.7 24.1 0.00 0.84 0.28 81 1011.2
20260503203202 15 263 9.7 20.9 0.00 0.84 0.28 82 1011.2
20260503202658 15 263 9.7 20.9 0.00 0.84 0.28 82 1011.1
20260503202147 15 263 8.0 29.0 0.00 0.84 0.28 82 1011.1
20260503201018 15 263 9.7 29.0 0.00 0.84 0.28 83 1010.9
20260503200510 15 263 8.0 27.4 0.00 0.84 0.28 83 1010.9
20260503200020 15 263 9.7 24.1 0.00 0.84 0.28 83 1010.9
20260503195521 15 263 9.7 24.1 0.00 0.84 0.28 83 1010.9
20260503195024 15 263 8.0 22.5 0.00 0.84 0.28 83 1010.9
20260503194505 15 263 8.0 22.5 0.00 0.84 0.28 83 1010.9
20260503194001 15 263 8.0 32.2 0.00 0.84 0.28 83 1010.8
20260503193446 15 263 8.0 32.2 0.00 0.84 0.28 83 1010.8
20260503192927 15 263 11.3 32.2 0.00 0.84 0.28 82 1010.8
20260503192412 15 263 11.3 24.1 0.00 0.84 0.28 82 1010.7
20260503191903 15 263 8.0 24.1 0.00 0.84 0.28 82 1010.7
20260503191344 15 263 6.4 19.3 0.00 0.84 0.28 82 1010.9
20260503190211 15 263 9.7 30.6 0.00 0.84 0.28 82 1010.9
20260503185713 15 263 9.7 30.6 0.00 0.84 0.28 82 1010.7
20260503185157 15 263 9.7 30.6 0.00 0.84 0.28 82 1010.7
20260503184655 15 263 8.0 30.6 0.00 0.84 0.28 82 1010.7
20260503184156 15 263 9.7 25.7 0.00 0.84 0.28 82 1010.7
20260503183646 15 263 9.7 25.7 0.00 0.84 0.28 82 1010.7
20260503182526 15 263 6.4 25.7 0.00 0.84 0.28 83 1010.7
20260503182028 15 263 8.0 25.7 0.00 0.84 0.28 83 1010.7
20260503181518 15 263 8.0 20.9 0.00 0.84 0.28 83 1010.7
20260503181008 15 263 8.0 19.3 0.00 0.84 0.28 83 1010.7
20260503180505 15 263 9.7 22.5 0.00 0.84 0.28 84 1010.7
20260503175959 15 263 9.7 22.5 0.00 0.84 0.28 84 1010.7
20260503175446 15 263 9.7 30.6 0.00 0.84 0.28 85 1010.9
20260503174952 15 263 9.7 30.6 0.00 0.84 0.28 85 1010.9
20260503174437 15 263 9.7 30.6 0.00 0.84 0.28 85 1010.9
20260503170744 14 263 6.4 19.3 0.00 0.84 0.28 87 1011.2
20260503170238 14 263 4.8 30.6 0.00 0.86 0.28 87 1011.2
20260503150601 13 263 4.8 32.2 0.15 0.99 0.25 86 1011.6